User: anonymous   Login
Location: Unspecified
(0.0000°N, 0.0000°E)
Time: 05:13:06
(UTC+00:00)
Language:

GSAT 7 - Orbit

View from above orbital plane
View from above orbital plane
View from above satellite
View from above satellite

Ground track
Ground track

The orbit data is extracted from the following two-line orbital elements,

1 39234U 13044B   15085.74385839 -.00000105  00000-0  00000+0 0  9995
2 39234 000.0529 105.4316 0008849 179.3061 240.8661 01.00272151  5781
Epoch (UTC): 26 March 2015 17:51:09
Eccentricity: 0.0008849
inclination: 0.0529°
perigee height: 35749 km
apogee height: 35823 km
right ascension of ascending node: 105.4316°
argument of perigee: 179.3061°
revolutions per day: 1.00272151
mean anomaly at epoch: 240.8661°
orbit number at epoch: 578

The dashed part of the orbit path shows where the satellite is in the earth's shadow,  

DLR